| time (UTC) | temp C | wind direction | speed KPH | gust KPH | rain 1hr cm | rain 24hr cm | rain mn cm | humidity % | barometer mb |
| 20260505100516 | 6 | 0.0 | 6.4 | 0.00 | 0.00 | 0.00 | 85 | 1012.4 | |
| 20260505100016 | 6 | 135 | 1.6 | 4.8 | 0.00 | 0.00 | 0.00 | 85 | 1012.3 |
| 20260505095516 | 6 | 0.0 | 6.4 | 0.00 | 0.00 | 0.00 | 85 | 1012.3 | |
| 20260505095016 | 6 | 135 | 1.6 | 4.8 | 0.00 | 0.00 | 0.00 | 85 | 1012.2 |
| 20260505094516 | 6 | 135 | 1.6 | 4.8 | 0.00 | 0.00 | 0.00 | 84 | 1012.3 |
| 20260505094016 | 6 | 225 | 1.6 | 4.8 | 0.00 | 0.00 | 0.00 | 84 | 1012.2 |
| 20260505093516 | 6 | 135 | 1.6 | 9.7 | 0.00 | 0.00 | 0.00 | 84 | 1012.1 |
| 20260505093016 | 6 | 0.0 | 3.2 | 0.00 | 0.00 | 0.00 | 84 | 1012.3 | |
| 20260505092516 | 6 | 225 | 1.6 | 6.4 | 0.00 | 0.00 | 0.00 | 84 | 1012.2 |
| 20260505092016 | 6 | 158 | 1.6 | 9.7 | 0.00 | 0.00 | 0.00 | 84 | 1012.3 |
| 20260505091516 | 7 | 113 | 1.6 | 6.4 | 0.00 | 0.00 | 0.00 | 84 | 1012.1 |
| 20260505091016 | 7 | 225 | 3.2 | 14.5 | 0.00 | 0.00 | 0.00 | 84 | 1012.1 |
| 20260505090516 | 7 | 203 | 1.6 | 8.0 | 0.00 | 0.00 | 0.00 | 84 | 1012.0 |
| 20260505090016 | 7 | 203 | 1.6 | 4.8 | 0.00 | 0.00 | 0.00 | 83 | 1012.2 |
| 20260505085517 | 7 | 0.0 | 3.2 | 0.00 | 0.00 | 0.00 | 83 | 1012.4 | |
| 20260505085016 | 7 | 225 | 3.2 | 11.3 | 0.00 | 0.00 | 0.00 | 83 | 1012.1 |
| 20260505084516 | 7 | 0.0 | 8.0 | 0.00 | 0.00 | 0.00 | 84 | 1012.1 | |
| 20260505084016 | 7 | 135 | 1.6 | 6.4 | 0.00 | 0.00 | 0.00 | 84 | 1012.0 |
| 20260505083516 | 7 | 113 | 1.6 | 4.8 | 0.00 | 0.00 | 0.00 | 84 | 1011.6 |
| 20260505083017 | 7 | 0.0 | 1.6 | 0.00 | 0.00 | 0.00 | 84 | 1011.8 | |
| 20260505082517 | 7 | 0.0 | 4.8 | 0.00 | 0.00 | 0.00 | 84 | 1011.9 | |
| 20260505082016 | 7 | 0.0 | 3.2 | 0.00 | 0.00 | 0.00 | 84 | 1011.9 | |
| 20260505081516 | 7 | 0.0 | 3.2 | 0.00 | 0.00 | 0.00 | 83 | 1011.8 | |
| 20260505081016 | 7 | 0.0 | 3.2 | 0.00 | 0.00 | 0.00 | 83 | 1011.7 | |
| 20260505080516 | 7 | 0.0 | 6.4 | 0.00 | 0.00 | 0.00 | 83 | 1011.6 | |
| 20260505080016 | 7 | 0.0 | 3.2 | 0.00 | 0.00 | 0.00 | 83 | 1011.6 | |
| 20260505075516 | 7 | 0.0 | 1.6 | 0.00 | 0.00 | 0.00 | 83 | 1011.7 | |
| 20260505075016 | 7 | 0.0 | 1.6 | 0.00 | 0.00 | 0.00 | 82 | 1011.8 | |
| 20260505074517 | 7 | 0.0 | 3.2 | 0.00 | 0.00 | 0.00 | 82 | 1011.8 | |
| 20260505074016 | 7 | 0.0 | 1.6 | 0.00 | 0.00 | 0.00 | 81 | 1011.8 | |
| 20260505073516 | 7 | 0.0 | 3.2 | 0.00 | 0.00 | 0.00 | 81 | 1011.5 | |
| 20260505073016 | 7 | 0.0 | 1.6 | 0.00 | 0.00 | 0.00 | 81 | 1011.2 | |
| 20260505072516 | 7 | 135 | 1.6 | 3.2 | 0.00 | 0.00 | 0.00 | 80 | 1011.2 |
| 20260505072017 | 8 | 0.0 | 1.6 | 0.00 | 0.00 | 0.00 | 80 | 1011.3 | |
| 20260505071516 | 8 | 135 | 1.6 | 6.4 | 0.00 | 0.00 | 0.00 | 80 | 1011.2 |
| 20260505071016 | 8 | 0.0 | 3.2 | 0.00 | 0.00 | 0.00 | 80 | 1011.4 | |
| 20260505070516 | 8 | 0.0 | 3.2 | 0.00 | 0.00 | 0.00 | 80 | 1011.4 | |
| 20260505070016 | 8 | 135 | 1.6 | 11.3 | 0.00 | 0.00 | 0.00 | 79 | 1011.3 |
| 20260505065516 | 8 | 0.0 | 0.0 | 0.00 | 0.00 | 0.00 | 79 | 1011.3 | |
| 20260505065016 | 8 | 0.0 | 1.6 | 0.00 | 0.00 | 0.00 | 79 | 1011.1 | |
| 20260505064516 | 8 | 0.0 | 6.4 | 0.00 | 0.00 | 0.00 | 79 | 1010.9 | |
| 20260505064016 | 8 | 0.0 | 1.6 | 0.00 | 0.00 | 0.00 | 79 | 1010.9 | |
| 20260505063516 | 8 | 113 | 1.6 | 3.2 | 0.00 | 0.00 | 0.00 | 79 | 1010.8 |
| 20260505063016 | 8 | 225 | 1.6 | 3.2 | 0.00 | 0.00 | 0.00 | 79 | 1010.9 |
| 20260505062516 | 8 | 0.0 | 4.8 | 0.00 | 0.00 | 0.00 | 79 | 1010.8 | |
| 20260505062016 | 8 | 225 | 1.6 | 6.4 | 0.00 | 0.03 | 0.00 | 79 | 1010.9 |
| 20260505061516 | 8 | 180 | 1.6 | 8.0 | 0.00 | 0.03 | 0.00 | 80 | 1010.9 |
| 20260505061016 | 8 | 203 | 1.6 | 8.0 | 0.00 | 0.03 | 0.00 | 80 | 1011.0 |
| 20260505060516 | 7 | 203 | 1.6 | 8.0 | 0.00 | 0.03 | 0.00 | 79 | 1011.1 |
| 20260505060016 | 7 | 0.0 | 0.0 | 0.00 | 0.03 | 0.00 | 79 | 1010.8 | |
| 20260505055516 | 8 | 0.0 | 0.0 | 0.00 | 0.03 | 0.00 | 78 | 1010.6 | |
| 20260505055016 | 8 | 0.0 | 6.4 | 0.00 | 0.05 | 0.00 | 78 | 1010.7 | |
| 20260505054516 | 8 | 0.0 | 4.8 | 0.00 | 0.05 | 0.00 | 78 | 1010.6 | |
| 20260505054016 | 8 | 225 | 1.6 | 4.8 | 0.00 | 0.05 | 0.00 | 78 | 1010.6 |
| 20260505053517 | 8 | 0.0 | 8.0 | 0.00 | 0.05 | 0.00 | 78 | 1010.5 | |
| 20260505053016 | 8 | 0.0 | 3.2 | 0.00 | 0.05 | 0.00 | 78 | 1010.4 | |
| 20260505052516 | 8 | 0.0 | 4.8 | 0.00 | 0.08 | 0.00 | 78 | 1010.4 | |
| 20260505052016 | 8 | 0.0 | 1.6 | 0.00 | 0.08 | 0.00 | 78 | 1010.4 | |
| 20260505051516 | 8 | 0.0 | 1.6 | 0.00 | 0.08 | 0.00 | 77 | 1010.4 | |
| 20260505051016 | 8 | 225 | 1.6 | 6.4 | 0.00 | 0.08 | 0.00 | 77 | 1010.4 |
| 20260505050516 | 8 | 225 | 1.6 | 4.8 | 0.00 | 0.10 | 0.00 | 77 | 1010.3 |
| 20260505041516 | 9 | 225 | 3.2 | 14.5 | 0.00 | 0.18 | 0.00 | 74 | 1009.8 |
| 20260505041016 | 9 | 225 | 3.2 | 11.3 | 0.00 | 0.18 | 0.00 | 74 | 1009.7 |
| 20260505040516 | 9 | 225 | 1.6 | 8.0 | 0.00 | 0.18 | 0.00 | 74 | 1009.6 |
| 20260505040016 | 9 | 225 | 1.6 | 9.7 | 0.00 | 0.20 | 0.00 | 74 | 1009.5 |
| 20260505035516 | 10 | 225 | 3.2 | 11.3 | 0.00 | 0.20 | 0.00 | 73 | 1009.5 |
| 20260505035016 | 10 | 270 | 3.2 | 17.7 | 0.00 | 0.23 | 0.00 | 73 | 1009.5 |
| 20260505034516 | 10 | 203 | 1.6 | 9.7 | 0.00 | 0.23 | 0.00 | 73 | 1009.5 |
| 20260505034016 | 10 | 248 | 3.2 | 11.3 | 0.00 | 0.23 | 0.00 | 73 | 1009.4 |
| 20260505033516 | 10 | 315 | 3.2 | 12.9 | 0.00 | 0.23 | 0.00 | 73 | 1009.3 |
| 20260505033016 | 9 | 270 | 3.2 | 11.3 | 0.00 | 0.23 | 0.00 | 74 | 1009.2 |
| 20260505032517 | 9 | 293 | 3.2 | 9.7 | 0.00 | 0.25 | 0.00 | 75 | 1009.2 |
| 20260505032016 | 9 | 225 | 1.6 | 9.7 | 0.00 | 0.25 | 0.00 | 76 | 1009.1 |
| 20260505031516 | 8 | 203 | 3.2 | 8.0 | 0.00 | 0.25 | 0.00 | 76 | 1009.0 |
| 20260505031016 | 8 | 225 | 3.2 | 12.9 | 0.00 | 0.25 | 0.00 | 78 | 1008.9 |
| 20260505030516 | 8 | 248 | 1.6 | 16.1 | 0.00 | 0.25 | 0.00 | 80 | 1008.7 |
| 20260505030016 | 7 | 225 | 3.2 | 9.7 | 0.00 | 0.28 | 0.00 | 82 | 1008.7 |
| 20260505025517 | 7 | 0.0 | 9.7 | 0.00 | 0.28 | 0.28 | 85 | 1008.7 | |
| 20260505025017 | 6 | 0.0 | 1.6 | 0.00 | 0.28 | 0.28 | 86 | 1008.6 | |
| 20260505024517 | 6 | 0.0 | 0.0 | 0.00 | 0.30 | 0.28 | 86 | 1008.6 | |
| 20260505024016 | 6 | 0.0 | 0.0 | 0.00 | 0.30 | 0.28 | 85 | 1008.6 | |
| 20260505023517 | 6 | 0.0 | 0.0 | 0.00 | 0.30 | 0.28 | 85 | 1008.6 | |
| 20260505023017 | 6 | 0.0 | 0.0 | 0.00 | 0.30 | 0.28 | 84 | 1008.5 | |
| 20260505022517 | 6 | 0.0 | 1.6 | 0.00 | 0.30 | 0.28 | 83 | 1008.4 | |
| 20260505022016 | 7 | 0.0 | 0.0 | 0.00 | 0.30 | 0.28 | 82 | 1008.3 | |
| 20260505021516 | 7 | 0.0 | 0.0 | 0.00 | 0.30 | 0.28 | 82 | 1008.3 | |
| 20260505021017 | 7 | 0.0 | 3.2 | 0.00 | 0.30 | 0.28 | 81 | 1008.2 | |
| 20260505020517 | 7 | 0.0 | 1.6 | 0.00 | 0.30 | 0.28 | 81 | 1008.1 | |
| 20260505020017 | 7 | 0.0 | 1.6 | 0.00 | 0.30 | 0.28 | 81 | 1008.0 | |
| 20260505015517 | 7 | 0.0 | 1.6 | 0.00 | 0.33 | 0.28 | 81 | 1008.0 | |
| 20260505015017 | 7 | 0.0 | 1.6 | 0.00 | 0.33 | 0.28 | 81 | 1007.8 | |
| 20260505014517 | 7 | 0.0 | 1.6 | 0.00 | 0.33 | 0.28 | 81 | 1007.8 | |
| 20260505014017 | 7 | 0.0 | 3.2 | 0.00 | 0.33 | 0.28 | 80 | 1007.6 | |
| 20260505013517 | 7 | 0.0 | 4.8 | 0.00 | 0.33 | 0.28 | 80 | 1007.7 | |
| 20260505013017 | 7 | 0.0 | 1.6 | 0.00 | 0.33 | 0.28 | 80 | 1007.6 | |
| 20260505012517 | 7 | 0.0 | 3.2 | 0.00 | 0.33 | 0.28 | 80 | 1007.7 | |
| 20260505012017 | 7 | 0.0 | 3.2 | 0.00 | 0.33 | 0.28 | 79 | 1007.6 | |
| 20260505011517 | 7 | 0.0 | 1.6 | 0.00 | 0.33 | 0.28 | 79 | 1007.5 | |
| 20260505011016 | 7 | 0.0 | 1.6 | 0.00 | 0.33 | 0.28 | 79 | 1007.6 | |
| 20260505010517 | 7 | 0.0 | 1.6 | 0.00 | 0.33 | 0.28 | 78 | 1007.6 | |
| 20260505010016 | 7 | 0.0 | 3.2 | 0.00 | 0.33 | 0.28 | 78 | 1007.5 | |
| 20260505005517 | 7 | 0.0 | 3.2 | 0.00 | 0.33 | 0.28 | 78 | 1007.4 | |
| 20260505005017 | 7 | 0.0 | 1.6 | 0.00 | 0.33 | 0.28 | 78 | 1007.4 | |
| 20260505004516 | 7 | 0.0 | 3.2 | 0.00 | 0.33 | 0.28 | 77 | 1007.3 | |
| 20260505004017 | 8 | 0.0 | 1.6 | 0.00 | 0.33 | 0.28 | 77 | 1007.2 | |
| 20260505003517 | 8 | 0.0 | 1.6 | 0.00 | 0.33 | 0.28 | 77 | 1007.2 | |
| 20260505003017 | 8 | 0.0 | 3.2 | 0.00 | 0.33 | 0.28 | 77 | 1007.1 | |
| 20260505002516 | 8 | 158 | 1.6 | 4.8 | 0.00 | 0.33 | 0.28 | 77 | 1007.1 |
| 20260505002017 | 8 | 0.0 | 4.8 | 0.00 | 0.33 | 0.28 | 76 | 1007.1 | |
| 20260505001517 | 8 | 0.0 | 3.2 | 0.00 | 0.33 | 0.28 | 76 | 1007.0 | |
| 20260505001016 | 8 | 0.0 | 3.2 | 0.00 | 0.33 | 0.28 | 75 | 1006.9 | |
| 20260505000517 | 8 | 0.0 | 3.2 | 0.00 | 0.33 | 0.28 | 75 | 1006.8 | |
| 20260505000017 | 8 | 0.0 | 1.6 | 0.00 | 0.33 | 0.28 | 74 | 1006.7 | |
| 20260504235517 | 8 | 0.0 | 0.0 | 0.00 | 0.33 | 0.28 | 74 | 1006.7 | |
| 20260504235017 | 9 | 0.0 | 4.8 | 0.00 | 0.33 | 0.28 | 74 | 1006.6 | |
| 20260504234516 | 9 | 0.0 | 4.8 | 0.00 | 0.33 | 0.28 | 73 | 1006.5 | |
| 20260504234016 | 9 | 225 | 1.6 | 4.8 | 0.00 | 0.33 | 0.28 | 73 | 1006.6 |
| 20260504233517 | 9 | 225 | 1.6 | 6.4 | 0.00 | 0.33 | 0.28 | 73 | 1006.5 |
| 20260504233016 | 9 | 203 | 3.2 | 9.7 | 0.00 | 0.33 | 0.28 | 73 | 1006.6 |
| 20260504232517 | 9 | 225 | 1.6 | 8.0 | 0.00 | 0.33 | 0.28 | 73 | 1006.5 |
| 20260504232017 | 9 | 113 | 3.2 | 9.7 | 0.00 | 0.33 | 0.28 | 72 | 1006.4 |
| 20260504231517 | 10 | 203 | 3.2 | 9.7 | 0.00 | 0.33 | 0.28 | 72 | 1006.3 |
| 20260504231017 | 10 | 203 | 3.2 | 12.9 | 0.00 | 0.33 | 0.28 | 71 | 1006.2 |
| 20260504230516 | 10 | 113 | 3.2 | 12.9 | 0.00 | 0.33 | 0.28 | 71 | 1006.1 |
| 20260504230017 | 10 | 135 | 1.6 | 4.8 | 0.00 | 0.33 | 0.28 | 70 | 1006.1 |
| 20260504225517 | 10 | 135 | 1.6 | 6.4 | 0.00 | 0.33 | 0.28 | 69 | 1005.9 |
| 20260504225017 | 11 | 135 | 1.6 | 6.4 | 0.00 | 0.36 | 0.28 | 69 | 1005.8 |
| 20260504224516 | 11 | 225 | 3.2 | 14.5 | 0.00 | 0.36 | 0.28 | 67 | 1005.9 |
| 20260504224017 | 11 | 135 | 1.6 | 11.3 | 0.00 | 0.36 | 0.28 | 67 | 1005.8 |
| 20260504223517 | 11 | 158 | 3.2 | 8.0 | 0.00 | 0.36 | 0.28 | 67 | 1005.8 |
| 20260504223017 | 11 | 248 | 1.6 | 9.7 | 0.00 | 0.36 | 0.28 | 67 | 1005.8 |
| 20260504222517 | 11 | 225 | 3.2 | 9.7 | 0.00 | 0.38 | 0.28 | 67 | 1005.9 |
| 20260504222017 | 11 | 315 | 1.6 | 4.8 | 0.00 | 0.38 | 0.28 | 67 | 1005.9 |
| 20260504221517 | 11 | 225 | 1.6 | 11.3 | 0.00 | 0.41 | 0.28 | 67 | 1005.9 |
| 20260504221017 | 11 | 203 | 4.8 | 17.7 | 0.00 | 0.43 | 0.28 | 68 | 1005.9 |
| 20260504220517 | 11 | 158 | 1.6 | 8.0 | 0.00 | 0.43 | 0.28 | 68 | 1005.8 |
| 20260504220016 | 11 | 225 | 1.6 | 9.7 | 0.00 | 0.43 | 0.28 | 68 | 1005.8 |
| 20260504215517 | 11 | 225 | 3.2 | 12.9 | 0.00 | 0.46 | 0.28 | 67 | 1005.7 |
| 20260504215016 | 11 | 225 | 3.2 | 11.3 | 0.00 | 0.46 | 0.28 | 66 | 1005.6 |
| 20260504214517 | 11 | 158 | 3.2 | 16.1 | 0.00 | 0.46 | 0.28 | 65 | 1005.5 |
| 20260504214017 | 11 | 135 | 1.6 | 8.0 | 0.00 | 0.46 | 0.28 | 64 | 1005.3 |
| 20260504213516 | 11 | 135 | 3.2 | 14.5 | 0.00 | 0.48 | 0.28 | 63 | 1005.5 |
| 20260504213017 | 11 | 225 | 4.8 | 19.3 | 0.00 | 0.48 | 0.28 | 62 | 1005.4 |
| 20260504212516 | 11 | 203 | 4.8 | 12.9 | 0.00 | 0.48 | 0.28 | 61 | 1005.3 |
| 20260504212017 | 12 | 203 | 4.8 | 16.1 | 0.00 | 0.48 | 0.28 | 60 | 1005.2 |
| 20260504211516 | 12 | 180 | 6.4 | 17.7 | 0.00 | 0.48 | 0.28 | 59 | 1005.0 |
| 20260504211016 | 12 | 225 | 6.4 | 17.7 | 0.00 | 0.48 | 0.28 | 58 | 1005.0 |
| 20260504210517 | 12 | 158 | 4.8 | 12.9 | 0.00 | 0.48 | 0.28 | 58 | 1005.0 |
| 20260504210016 | 12 | 225 | 6.4 | 19.3 | 0.00 | 0.51 | 0.28 | 56 | 1005.0 |
| 20260504205517 | 12 | 225 | 6.4 | 22.5 | 0.00 | 0.51 | 0.28 | 55 | 1004.9 |
| 20260504205016 | 13 | 203 | 8.0 | 25.7 | 0.00 | 0.51 | 0.28 | 54 | 1004.9 |
| 20260504204517 | 13 | 158 | 4.8 | 17.7 | 0.00 | 0.51 | 0.28 | 53 | 1004.8 |
| 20260504204016 | 13 | 135 | 4.8 | 17.7 | 0.00 | 0.53 | 0.28 | 51 | 1004.8 |
| 20260504203516 | 14 | 158 | 6.4 | 17.7 | 0.00 | 0.56 | 0.28 | 50 | 1004.7 |
| 20260504203017 | 15 | 135 | 6.4 | 16.1 | 0.00 | 0.61 | 0.28 | 47 | 1004.6 |
| 20260504202516 | 15 | 113 | 8.0 | 24.1 | 0.00 | 0.61 | 0.28 | 46 | 1004.5 |
| 20260504202016 | 16 | 135 | 6.4 | 16.1 | 0.00 | 0.64 | 0.28 | 43 | 1004.3 |
| 20260504201516 | 17 | 225 | 4.8 | 17.7 | 0.00 | 0.69 | 0.28 | 39 | 1004.3 |
| 20260504201017 | 16 | 293 | 9.7 | 25.7 | 0.00 | 0.69 | 0.28 | 32 | 1004.1 |
| 20260504200517 | 16 | 315 | 8.0 | 22.5 | 0.00 | 0.71 | 0.28 | 32 | 1004.2 |
| 20260504200016 | 17 | 225 | 6.4 | 22.5 | 0.00 | 0.71 | 0.28 | 33 | 1004.3 |
| 20260504195516 | 16 | 225 | 8.0 | 20.9 | 0.00 | 0.71 | 0.28 | 32 | 1004.1 |
| 20260504195017 | 16 | 225 | 9.7 | 24.1 | 0.00 | 0.71 | 0.28 | 31 | 1004.0 |
| 20260504194517 | 16 | 270 | 6.4 | 27.4 | 0.00 | 0.71 | 0.28 | 32 | 1003.9 |
| 20260504194016 | 16 | 293 | 9.7 | 29.0 | 0.00 | 0.74 | 0.28 | 32 | 1003.8 |
| 20260504193517 | 16 | 315 | 8.0 | 19.3 | 0.00 | 0.74 | 0.28 | 32 | 1003.8 |
| 20260504193017 | 16 | 293 | 6.4 | 20.9 | 0.00 | 0.76 | 0.28 | 33 | 1003.7 |
| 20260504192516 | 16 | 293 | 8.0 | 27.4 | 0.00 | 0.76 | 0.28 | 32 | 1003.6 |
| 20260504192017 | 16 | 293 | 8.0 | 25.7 | 0.00 | 0.79 | 0.28 | 33 | 1003.6 |
| 20260504191517 | 16 | 225 | 11.3 | 29.0 | 0.00 | 0.79 | 0.28 | 33 | 1003.7 |
| 20260504191017 | 16 | 293 | 8.0 | 25.7 | 0.00 | 0.79 | 0.28 | 33 | 1003.5 |
| 20260504190517 | 16 | 293 | 9.7 | 22.5 | 0.00 | 0.81 | 0.28 | 32 | 1003.6 |
| 20260504190016 | 16 | 248 | 8.0 | 22.5 | 0.00 | 0.81 | 0.28 | 32 | 1003.5 |
| 20260504185516 | 16 | 270 | 9.7 | 41.8 | 0.00 | 0.84 | 0.28 | 31 | 1003.6 |
| 20260504185017 | 16 | 248 | 11.3 | 41.8 | 0.00 | 0.86 | 0.28 | 32 | 1003.6 |
| 20260504184516 | 16 | 293 | 11.3 | 29.0 | 0.00 | 0.89 | 0.28 | 32 | 1003.5 |
| 20260504184017 | 16 | 315 | 8.0 | 20.9 | 0.00 | 0.91 | 0.28 | 32 | 1003.6 |
| 20260504183517 | 15 | 293 | 12.9 | 24.1 | 0.00 | 0.97 | 0.28 | 32 | 1003.8 |
| 20260504183016 | 15 | 315 | 11.3 | 25.7 | 0.00 | 0.99 | 0.28 | 31 | 1003.8 |
| 20260504182516 | 15 | 315 | 9.7 | 24.1 | 0.00 | 1.04 | 0.28 | 33 | 1003.7 |
| 20260504182016 | 15 | 315 | 6.4 | 19.3 | 0.00 | 1.09 | 0.28 | 33 | 1003.8 |
| 20260504181517 | 15 | 293 | 12.9 | 30.6 | 0.00 | 1.14 | 0.28 | 32 | 1003.8 |
| 20260504181016 | 15 | 270 | 14.5 | 33.8 | 0.00 | 1.19 | 0.28 | 32 | 1003.7 |
| 20260504180516 | 15 | 293 | 8.0 | 20.9 | 0.00 | 1.22 | 0.28 | 34 | 1003.7 |
| 20260504180017 | 15 | 293 | 9.7 | 22.5 | 0.00 | 1.27 | 0.28 | 33 | 1003.8 |
| 20260504175516 | 15 | 293 | 14.5 | 24.1 | 0.00 | 1.27 | 0.28 | 33 | 1004.0 |
| 20260504175017 | 14 | 315 | 12.9 | 37.0 | 0.00 | 1.27 | 0.28 | 33 | 1003.9 |
| 20260504174516 | 14 | 315 | 17.7 | 32.2 | 0.00 | 1.32 | 0.28 | 31 | 1004.1 |
| 20260504174016 | 14 | 315 | 12.9 | 29.0 | 0.00 | 1.35 | 0.28 | 33 | 1004.2 |
| 20260504173517 | 14 | 315 | 11.3 | 37.0 | 0.00 | 1.37 | 0.28 | 32 | 1004.1 |
| 20260504173016 | 14 | 315 | 12.9 | 33.8 | 0.00 | 1.40 | 0.28 | 34 | 1004.0 |
| 20260504172517 | 14 | 293 | 11.3 | 29.0 | 0.00 | 1.42 | 0.28 | 33 | 1004.0 |
| 20260504172017 | 14 | 293 | 9.7 | 24.1 | 0.00 | 1.45 | 0.28 | 34 | 1003.8 |
| 20260504171517 | 14 | 315 | 11.3 | 32.2 | 0.00 | 1.47 | 0.28 | 33 | 1004.0 |
| 20260504171017 | 13 | 315 | 14.5 | 29.0 | 0.00 | 1.55 | 0.28 | 33 | 1003.9 |
| 20260504170516 | 14 | 315 | 11.3 | 30.6 | 0.00 | 1.55 | 0.28 | 34 | 1003.8 |
| 20260504151016 | 11 | 315 | 11.3 | 27.4 | 0.00 | 1.70 | 0.28 | 54 | 1003.5 |
| 20260504150516 | 11 | 293 | 11.3 | 25.7 | 0.00 | 1.73 | 0.28 | 54 | 1003.4 |
| 20260504141016 | 10 | 315 | 11.3 | 27.4 | 0.00 | 1.75 | 0.28 | 62 | 1003.1 |
| 20260504140516 | 10 | 293 | 11.3 | 30.6 | 0.00 | 1.75 | 0.28 | 62 | 1002.9 |
| 20260504130517 | 7 | 293 | 9.7 | 25.7 | 0.00 | 1.75 | 0.28 | 76 | 1002.0 |
| 20260504110517 | 6 | 315 | 8.0 | 16.1 | 0.00 | 1.75 | 0.28 | 85 | 999.7 |